Weather History for Greenwood, SC

Change the Weather History Date:

Saturday, October 5, 2013

  Actual Average (KAND) Record (KAND)
Temperature  
Mean Temperature 74 °F -  
Max Temperature 89 °F 78 °F 99 °F (1954)
Min Temperature 59 °F 53 °F 37 °F (1974)
Cooling Degree Days 8    
Growing Degree Days 24 (Base 50)    
Moisture  
Dew Point 62 °F    
Average Humidity 74    
Maximum Humidity 96    
Minimum Humidity 40    
Precipitation  
Precipitation 0.00 in - - ()
Sea Level Pressure  
Sea Level Pressure 30.10 in    
Wind  
Wind Speed 0 mph (NE)    
Max Wind Speed 5 mph    
Max Gust Speed -    
Visibility 9 miles    
Events      
Averages and records for this station are not official NWS values.
T = Trace of Precipitation, MM = Missing Value Source: NWS Daily Summary

Daily Weather History Graph

Daily Weather History Graph

Search for Another Location

Airport:

Trip Planner

Search our weather history database for the weather conditions in past years. The results will help you decide how hot, cold, wet, or windy it might be!

Date:

Astronomy

Oct. 05, 2013 Rise Set
Actual Time 7:26 AM EDT 7:07 PM EDT
Civil Twilight 7:01 AM EDT 7:32 PM EDT
Nautical Twilight 6:32 AM EDT 8:01 PM EDT
Astronomical Twilight 6:03 AM EDT 8:30 PM EDT
Moon 8:01 AM EDT (10/5) 7:29 PM EDT (10/5)
Length of Visible Light 12h 30m
Length of Day
11h 40m
New Moon, 0% of the Moon is Illuminated
Oct 5
New Moon
Oct 11
First Quarter
Oct 18
Full
Oct 26
Last Quarter
Nov 3
New

Hourly Weather History & Observations

Time (EDT) Temp. Heat Index Dew Point Humidity Pressure Visibility Wind Dir Wind Speed Gust Speed Precip Events Conditions
12:56 AM 64.0 °F - 61.0 °F 90% 30.12 in 8.0 mi Calm Calm - N/A   Clear
1:56 AM 63.0 °F - 61.0 °F 93% 30.11 in 7.0 mi Calm Calm - N/A   Clear
2:56 AM 62.1 °F - 60.1 °F 93% 30.11 in 8.0 mi Calm Calm - N/A   Clear
3:56 AM 61.0 °F - 59.0 °F 93% 30.10 in 6.0 mi Calm Calm - N/A   Clear
4:56 AM 60.1 °F - 59.0 °F 96% 30.11 in 6.0 mi Calm Calm - N/A   Clear
5:56 AM 60.1 °F - 57.9 °F 93% 30.12 in 7.0 mi Calm Calm - N/A   Clear
6:56 AM 59.0 °F - 57.0 °F 93% 30.14 in 5.0 mi Calm Calm - N/A   Clear
7:56 AM 60.1 °F - 57.9 °F 93% 30.15 in 6.0 mi Calm Calm - N/A   Clear
8:56 AM 66.9 °F - 63.0 °F 87% 30.16 in 8.0 mi Calm Calm - N/A   Clear
9:56 AM 73.9 °F - 64.0 °F 71% 30.16 in 10.0 mi Calm Calm - N/A   Clear
10:56 AM 80.1 °F 81.9 °F 64.9 °F 60% 30.15 in 10.0 mi Calm Calm - N/A   Clear
11:56 AM 84.0 °F 85.4 °F 64.0 °F 51% 30.14 in 10.0 mi Calm Calm - N/A   Clear
12:56 PM 84.0 °F 84.4 °F 61.0 °F 46% 30.13 in 10.0 mi East 3.5 mph - N/A   Clear
1:56 PM 84.9 °F 85.4 °F 62.1 °F 46% 30.10 in 10.0 mi Calm Calm - N/A   Partly Cloudy
2:56 PM 87.1 °F 87.0 °F 61.0 °F 41% 30.07 in 10.0 mi Variable 3.5 mph - N/A   Clear
3:56 PM 88.0 °F 87.9 °F 61.0 °F 40% 30.06 in 10.0 mi North 4.6 mph - N/A   Scattered Clouds
4:56 PM 87.1 °F 87.0 °F 61.0 °F 41% 30.05 in 10.0 mi Calm Calm - N/A   Clear
5:56 PM 84.9 °F 85.0 °F 61.0 °F 44% 30.04 in 10.0 mi Calm Calm - N/A   Clear
6:56 PM 77.0 °F - 66.0 °F 69% 30.04 in 10.0 mi Calm Calm - N/A   Clear
7:56 PM 72.0 °F - 64.9 °F 78% 30.05 in 10.0 mi Calm Calm - N/A   Clear
8:56 PM 69.1 °F - 64.9 °F 87% 30.07 in 10.0 mi Calm Calm - N/A   Clear
9:56 PM 68.0 °F - 64.9 °F 90% 30.07 in 9.0 mi Calm Calm - N/A   Partly Cloudy
10:56 PM 68.0 °F - 64.9 °F 90% 30.07 in 9.0 mi Calm Calm - N/A   Partly Cloudy
11:56 PM 66.9 °F - 64.0 °F 90% 30.06 in 9.0 mi Calm Calm - N/A   Clear